星链-4794 (STARLINK-4794 )

导读

STARLINK-4794是美国SpaceX公司星链星座的成员卫星,于北京时间2022年9月19日发射升空,归属星链星座组网。作为低轨通信卫星,它属于星链第二代组网中的一员,服务于星链全球高速卫星互联网项目,为偏远地区、海洋等场景提供低延迟宽带接入,进一步扩充了星链星座的全球覆盖能力与通信容量。

基本信息
目录编号:
53853
目录名称:
STARLINK-4794
国际标识:
2022-114AM
轨道中心:
EARTH
卫星名称:
星链-4794
卫星全名:
星链-4794 (STARLINK-4794 )
卫星状态:
在轨 (已飞行1367 天)
发射日期:
2022-09-19 UTC
国别 :
美国 (US)
星等 :
--
轨道信息
数据来源 国际轨道数据 AOE轨道数据
星历时间 2026-06-17T04:03:52+0800
12小时前
查看轨道信息
2026-06-16T07:00:00+0800
1天前
查看轨道信息
半长轴 6917.915km 6917.885km
偏心率 0.0001279 0.0001372
轨道倾角 53.159° 53.158°
近地点辐角 83.958° 71.722°
升交点赤经 208.638° 212.584°
平近点角 276.156° 198.399°
近地点 538.893km 538.798km
远地点 540.663km 540.698km
周期 95.438分钟 95.438分钟
每日圈数 15.088289 15.088386
详细信息
固有亮度:
5
最大亮度:
2.5
卫星平台:
Starlink v1.5
覆盖范围:
全球
运营商:
太空探索技术公司
运营商所在国:
美国
制造商(研发单位):
太空探索技术公司
制造商所在国:
美国
使用方式:
暂无
卫星简介
星链(Starlink)计划是由太空探索技术公司(SpaceX)提出的一个巨型低轨卫星互联网星座项目,计划在2019年至2024年间在太空搭建由约1.2万颗卫星组成的“星链”网络,其中1584颗将部署在地球上空550千米处的近地轨道,并从2020年开始工作。该卫星仍在工作。
2D轨道图
3D轨道图
轨道高度分析图
轨道倾角分析图
轨道综合分析图
查看轨道综合分析图